Paso Robles, CA

12:07 AM PST on December 08, 2019 (GMT -0800)
Paso Robles Municipal

Weather History for KPRB - October, 2019

Change the Weather History Date:

Friday, October 25, 2019

  Actual Average Record
Temperature  
Mean Temperature 68 °F 59 °F  
Max Temperature 93 °F 76 °F 99 °F (2017)
Min Temperature 44 °F 42 °F 30 °F (1971)
Degree Days  
Heating Degree Days 0 6  
Month to date heating degree days 85 95  
Since 1 July heating degree days 111 127  
Cooling Degree Days 4 0  
Month to date cooling degree days 27 34  
Year to date cooling degree days 1062 925  
Growing Degree Days 18 (Base 50)    
Moisture  
Dew Point 32 °F    
Average Humidity 35    
Maximum Humidity 71    
Minimum Humidity 8    
Precipitation  
Precipitation 0.00 in 0.03 in 0.18 in (1950)
Month to date precipitation 0.00 0.43  
Year to date precipitation 11.28 9.55  
Sea Level Pressure  
Sea Level Pressure 30.05 in    
Wind  
Wind Speed 2 mph ()    
Max Wind Speed 14 mph    
Max Gust Speed 20 mph    
Visibility 10.0 miles    
Events      
T = Trace of Precipitation, MM = Missing Value Source: Averaged Metar Reports

Daily Weather History Graph

Daily Weather History Graph

Search for Another Location

Airport or City:

Astronomy

Oct. 25, 2019 Rise Set
Actual Time 7:17 AM PDT 6:14 PM PDT
Civil Twilight 6:51 AM PDT 6:40 PM PDT
Nautical Twilight 6:21 AM PDT 7:10 PM PDT
Astronomical Twilight 5:52 AM PDT 7:40 PM PDT
Moon 4:15 AM PDT (10/25) 5:12 PM PDT (10/25)
Length of Visible Light 11h 49m
Length of Day
10h 56m
Waning Crescent, 8% of the Moon is Illuminated
Oct 25
Waning Crescent
Oct 27
New
Nov 4
First Quarter
Nov 12
Full
Nov 19
Last Quarter

Hourly Weather History & Observations

Time (PDT) Temp. Dew Point Humidity Pressure Visibility Wind Dir Wind Speed Gust Speed Precip Events Conditions
12:53 AM 55.0 °F 34.0 °F 45% 30.10 in 10.0 mi Calm Calm - N/A   Clear
1:53 AM 51.1 °F 32.0 °F 48% 30.10 in 10.0 mi Calm Calm - N/A   Clear
2:53 AM 52.0 °F 35.1 °F 53% 30.10 in 10.0 mi Calm Calm - N/A   Clear
3:53 AM 50.0 °F 35.1 °F 57% 30.09 in 10.0 mi Calm Calm - N/A   Clear
4:53 AM 46.0 °F 34.0 °F 63% 30.09 in 10.0 mi Calm Calm - N/A   Clear
5:53 AM 46.0 °F 34.0 °F 63% 30.10 in 10.0 mi Calm Calm - N/A   Clear
6:53 AM 46.9 °F 36.0 °F 66% 30.11 in 10.0 mi Calm Calm - N/A   Clear
7:53 AM 45.0 °F 36.0 °F 71% 30.12 in 10.0 mi Calm Calm - N/A   Clear
8:53 AM 55.0 °F 37.0 °F 51% 30.12 in 10.0 mi Calm Calm - N/A   Clear
9:53 AM 62.1 °F 37.9 °F 41% 30.12 in 10.0 mi NW 3.5 mph - N/A   Clear
10:53 AM 70.0 °F 35.1 °F 28% 30.11 in 10.0 mi NW 5.8 mph - N/A   Clear
11:53 AM 80.1 °F 34.0 °F 19% 30.08 in 10.0 mi NNW 5.8 mph - N/A   Clear
12:53 PM 88.0 °F 32.0 °F 14% 30.04 in 10.0 mi Variable 3.5 mph - N/A   Clear
1:53 PM 91.9 °F 25.0 °F 9% 30.01 in 10.0 mi ENE 11.5 mph - N/A   Clear
2:53 PM 93.0 °F 24.1 °F 8% 29.99 in 10.0 mi East 10.4 mph 19.6 mph N/A   Clear
3:53 PM 91.9 °F 26.1 °F 9% 29.98 in 10.0 mi ESE 11.5 mph - N/A   Clear
4:53 PM 91.0 °F 27.0 °F 10% 29.97 in 10.0 mi East 10.4 mph - N/A   Clear
5:53 PM 84.9 °F 28.0 °F 13% 29.97 in 10.0 mi East 8.1 mph - N/A   Clear
6:53 PM 75.9 °F 28.0 °F 17% 29.98 in 10.0 mi ESE 5.8 mph - N/A   Clear
7:53 PM 71.1 °F 30.0 °F 22% 29.99 in 10.0 mi Calm Calm - N/A   Clear
8:53 PM 64.0 °F 30.0 °F 28% 29.99 in 10.0 mi East 4.6 mph - N/A   Clear
9:53 PM 62.1 °F 30.9 °F 31% 30.00 in 10.0 mi East 3.5 mph - N/A   Clear
10:53 PM 57.9 °F 30.9 °F 36% 30.00 in 10.0 mi Calm Calm - N/A   Clear
11:53 PM 57.0 °F 32.0 °F 39% 29.99 in 10.0 mi Calm Calm - N/A   Clear